Weather Roundup
Issued by NWS Chicago, IL

Home | Current Version | Previous Version | Text Only | Print | Product List | Glossary On
Versions: 1 2 3 4 5 6 7 8 9 10 11 12 13 14 15 16 17 18 19 20 21 22 23 24 25 26 27 28 29 30 31 32 33 34 35 36 37 38 39 40 41 42 43 44 45 46 47 48 49 50
129
NZUS59 KLOT 281708
HRRLOT

CHICAGO AREA WEATHER ROUNDUP
NATIONAL WEATHER SERVICE CHICAGO/ROMEOVILLE IL
1200 PM CDT THU JUL 28 2016

NOTE: "FAIR" INDICATES FEW OR NO CLOUDS BELOW 12,000 FEET WITH NO
SIGNIFICANT WEATHER AND/OR OBSTRUCTIONS TO VISIBILITY.

* THESE STATIONS ARE NOT UNDER NWS QUALITY CONTROL. THEY ALSO MAY NOT
  REPORT WEATHER SUCH AS PRECIPITATION OR FOG.

ILZ005-006-012>014-019>023-281800-
NORTHEAST ILLINOIS

CITY           SKY/WX    TMP DP  RH WIND       PRES   REMARKS
OHARE          CLOUDY    82  69  64 NE8       29.89S HX  85
MIDWAY         PTSUNNY   76  66  71 E10       29.88F
AURORA         SUNNY     85  72  65 S7        29.89F HX  91
LANSING*       PTSUNNY   84  66  55 SE6       29.90F HX  86
JOLIET*        CLOUDY    85  72  65 SW5       29.89F HX  90
WAUKEGAN       PTSUNNY   79  67  66 VRB5      29.91S HX  81
DUPAGE AIRPORT MOSUNNY   85  69  58 SE7       29.89F HX  89
WHEELING       MOSUNNY   81  70  69 E7        29.91F HX  84
KANKAKEE*      MOSUNNY   84  70  63 S8        29.91S HX  88
MORRIS*        SUNNY     83  72  69 S3        29.88F HX  88
LEWIS AIRPORT* MOSUNNY   83  66  55 S6        29.89F HX  85
NORTHERLY ISL    N/A     76  72  87 NE5         N/A
$$

WIZ051-052-058>065-066-070>072-281800-
SOUTHEAST WISCONSIN

CITY           SKY/WX    TMP DP  RH WIND       PRES   REMARKS
MILWAUKEE      PTSUNNY   77  69  76 NE12      29.93S
KENOSHA*       PTSUNNY   81  69  67 VRB3      29.92F HX  84
RACINE*        CLOUDY    77  68  73 NE8       29.94S
BURLINGTON     CLOUDY    80  69  68 NE5       29.91F HX  82
WAUKESHA       CLOUDY    73  66  78 E8        29.95S
WEST BEND      CLOUDY    70  63  78 NE9       29.95F
$$

INZ001>003-010>013-019-020-281800-
NORTHWEST INDIANA

CITY           SKY/WX    TMP DP  RH WIND       PRES   REMARKS
GARY*          MOSUNNY   84  72  65 SE3       29.90F HX  89
MICHIGAN CITY* NOT AVBL
RENSSELAER*    NOT AVBL
VALPARAISO     CLOUDY    83  68  60 VRB3      29.91F HX  86
$$

LMZ740>746-281800-
SOUTHERN LAKE MICHIGAN

STATION/POSITION TIME  SKY/WX   TEMP WIND        PRES    VSBY
                                AIR  DIR/SP/G
                 (UTC)          (F)  (DEG/KT/KT) (MB)    (MI)
HARRISON CRIB    1600            78  100/  4/  4   N/A
BURNHAM HARBOR   1700            76   30/  3/  6   N/A
CALUMET HARBOR   1600            79   80/  6/  8 1012.1F
BURNS HARBOR     1600            78   30/  5/  6 1013.2S
MICHIGAN CITY    1600            77  350/  6/  6   N/A
$$

ABBREVIATIONS USED IN REMARKS
   TC - TEMPERATURE IN CELSIUS
  WCI - WIND CHILL INDEX
   HX - HEAT INDEX
  VSB - VISIBILITY
$$




USA.gov is the U.S. government's official web portal to all federal, state and local government web resources and services.